GW2473 Weather Reports


time (UTC)temp
C
wind
direction
speed
KPH
gust
KPH
rain 1hr
cm
rain 24hr
cm
rain mn
cm
humidity
%
barometer
mb
20260506161018 15 182 0.0 11.3 0.20 0.51 0.51 87 1007.2
20260506160514 15 182 1.6 11.3 0.18 0.48 0.48 87 1007.2
20260506160034 15 213 4.8 12.9 0.18 0.48 0.48 87 1007.2
20260506155514 15 234 3.2 12.9 0.15 0.46 0.46 87 1007.3
20260506155014 15 221 3.2 12.9 0.13 0.43 0.43 87 1007.5
20260506154533 15 0 0.0 9.7 0.10 0.38 0.38 87 1007.6
20260506154015 15 238 3.2 16.1 0.08 0.36 0.36 86 1007.8
20260506153515 15 337 3.2 16.1 0.10 0.36 0.36 86 1007.8
20260506153029 15 285 3.2 16.1 0.10 0.33 0.33 86 1007.7
20260506152514 15 229 0.0 9.7 0.10 0.33 0.33 86 1007.7
20260506152013 15 265 1.6 8.0 0.13 0.33 0.33 86 1007.6
20260506151532 15 152 1.6 8.0 0.13 0.33 0.33 86 1007.7
20260506151013 15 259 0.0 6.4 0.10 0.30 0.30 86 1007.6
20260506150514 15 148 0.0 3.2 0.13 0.30 0.30 86 1007.5
20260506150031 15 0 0.0 4.8 0.15 0.30 0.30 86 1007.5
20260506145518 15 0 0.0 4.8 0.15 0.30 0.30 87 1007.6
20260506145014 15 0 0.0 9.7 0.18 0.30 0.30 86 1007.6
20260506144529 15 0 0.0 9.7 0.18 0.28 0.28 86 1007.4
20260506144018 15 202 3.2 9.7 0.18 0.28 0.28 86 1007.6
20260506143514 15 233 4.8 16.1 0.18 0.25 0.25 86 1007.7
20260506143034 15 193 6.4 16.1 0.18 0.23 0.23 86 1007.8
20260506142514 15 284 3.2 12.9 0.20 0.23 0.23 86 1008.0
20260506142011 15 242 1.6 12.9 0.18 0.20 0.20 86 1008.1
20260506141532 15 183 1.6 14.5 0.20 0.20 0.20 86 1008.1
20260506141014 15 196 3.2 14.5 0.20 0.20 0.20 86 1008.0
20260506140515 15 286 3.2 14.5 0.18 0.18 0.18 86 1008.3
20260506140035 15 189 3.2 12.9 0.15 0.15 0.15 85 1008.3
20260506135513 15 205 3.2 9.7 0.13 0.13 0.13 85 1008.4
20260506135011 15 250 3.2 9.7 0.13 0.13 0.13 85 1008.3
20260506134532 15 194 1.6 6.4 0.10 0.10 0.10 85 1008.4
20260506134015 15 0 0.0 11.3 0.08 0.08 0.08 85 1008.4
20260506133518 15 292 1.6 12.9 0.08 0.08 0.08 84 1008.6
20260506133038 15 222 4.8 12.9 0.05 0.05 0.05 83 1008.5
20260506132515 15 207 1.6 12.9 0.03 0.03 0.03 83 1008.7
20260506132017 15 333 3.2 12.9 0.03 0.03 0.03 82 1008.7
20260506131530 15 258 4.8 17.7 0.00 0.00 0.00 82 1008.7
20260506131016 16 236 1.6 22.5 0.00 0.00 0.00 81 1008.7
20260506130516 16 0 3.2 29.0 0.00 0.00 0.00 80 1008.6
20260506130030 16 196 1.6 29.0 0.00 0.00 0.00 79 1008.5
20260506125513 16 253 6.4 27.4 0.00 0.00 0.00 79 1008.2
20260506125014 16 124 3.2 16.1 0.00 0.00 0.00 78 1008.2
20260506124530 16 0 3.2 16.1 0.00 0.00 0.00 78 1008.2
20260506124013 16 198 4.8 14.5 0.00 0.00 0.00 78 1008.1
20260506123512 16 232 4.8 12.9 0.00 0.00 0.00 78 1007.9
20260506123032 16 213 3.2 14.5 0.00 0.00 0.00 78 1007.9
20260506122516 16 5 6.4 14.5 0.00 0.00 0.00 78 1008.0
20260506122016 16 267 4.8 12.9 0.00 0.00 0.00 78 1008.0
20260506121530 16 0 3.2 11.3 0.00 0.00 0.00 77 1008.1
20260506121015 16 248 4.8 24.1 0.00 0.00 0.00 77 1008.1
20260506120514 16 221 4.8 24.1 0.00 0.00 0.00 76 1008.1
20260506120028 16 171 4.8 16.1 0.00 0.00 0.00 75 1008.1
20260506115514 16 215 3.2 16.1 0.00 0.00 0.00 73 1008.2
20260506115017 16 292 3.2 17.7 0.00 0.00 0.00 73 1008.4
20260506114536 16 190 4.8 17.7 0.00 0.00 0.00 71 1008.3
20260506114014 16 245 4.8 22.5 0.00 0.00 0.00 71 1008.3
20260506113520 16 226 8.0 24.1 0.00 0.00 0.00 71 1008.1
20260506113030 16 188 6.4 24.1 0.00 0.00 0.00 70 1008.1
20260506112515 16 0 0.0 17.7 0.00 0.00 0.00 70 1008.1
20260506112016 16 211 6.4 17.7 0.00 0.00 0.00 70 1008.1
20260506111535 16 163 1.6 11.3 0.00 0.00 0.00 69 1008.1
20260506111016 16 0 1.6 25.7 0.00 0.00 0.00 69 1008.2
20260506110515 16 0 3.2 25.7 0.00 0.00 0.00 69 1007.9
20260506110041 16 215 6.4 24.1 0.00 0.00 0.00 68 1008.1
20260506105517 16 223 1.6 16.1 0.00 0.00 0.00 68 1007.7
20260506105015 16 257 3.2 16.1 0.00 0.00 0.00 67 1007.5
20260506104554 17 217 3.2 12.9 0.00 0.00 0.00 67 1007.5
20260506104015 17 204 3.2 11.3 0.00 0.00 0.00 66 1007.5
20260506103517 17 265 3.2 11.3 0.00 0.00 0.00 66 1007.6
20260506103039 17 246 3.2 11.3 0.00 0.00 0.00 66 1007.6
20260506102515 17 213 3.2 16.1 0.00 0.00 0.00 65 1007.5
20260506102016 17 281 3.2 16.1 0.00 0.00 0.00 65 1007.4
20260506101533 17 0 3.2 16.1 0.00 0.00 0.00 64 1007.5
20260506101014 17 209 6.4 16.1 0.00 0.00 0.00 64 1007.6
20260506100519 17 190 3.2 11.3 0.00 0.00 0.00 64 1007.7
20260506100042 17 0 3.2 11.3 0.00 0.00 0.00 63 1007.7
20260506095517 17 194 1.6 11.3 0.00 0.00 0.00 63 1007.7
20260506095016 17 213 3.2 11.3 0.00 0.00 0.00 62 1007.8
20260506094538 17 0 3.2 12.9 0.00 0.00 0.00 62 1007.7
20260506094019 17 225 1.6 12.9 0.00 0.00 0.00 62 1007.7
20260506093514 17 176 6.4 12.9 0.00 0.00 0.00 61 1007.5
20260506093035 17 231 4.8 14.5 0.00 0.00 0.00 61 1007.5
20260506092514 17 213 6.4 14.5 0.00 0.00 0.00 60 1007.8
20260506092017 17 231 1.6 8.0 0.00 0.00 0.00 60 1007.7
20260506091531 17 209 1.6 12.9 0.00 0.00 0.00 60 1007.7
20260506091016 17 188 3.2 12.9 0.00 0.00 0.00 60 1007.7
20260506090520 17 215 4.8 14.5 0.00 0.00 0.00 59 1007.7
20260506090042 17 198 1.6 14.5 0.00 0.00 0.00 59 1007.9
20260506085517 17 296 4.8 14.5 0.00 0.00 0.00 59 1008.1
20260506085017 17 203 6.4 20.9 0.00 0.00 0.00 59 1008.0
20260506084533 17 0 6.4 20.9 0.00 0.00 0.00 59 1007.9
20260506084022 17 0 3.2 12.9 0.00 0.00 0.00 58 1007.9
20260506083518 17 201 3.2 12.9 0.00 0.00 0.00 58 1007.8
20260506083040 17 237 1.6 12.9 0.00 0.00 0.00 58 1007.8
20260506082516 17 232 3.2 9.7 0.00 0.00 0.00 57 1007.8
20260506082018 18 172 3.2 12.9 0.00 0.00 0.00 57 1007.8
20260506081531 18 203 4.8 12.9 0.00 0.00 0.00 57 1007.8
20260506081020 18 190 1.6 11.3 0.00 0.00 0.00 56 1007.8
20260506080517 18 181 4.8 14.5 0.00 0.00 0.00 56 1007.9
20260506073520 18 166 4.8 16.1 0.00 0.00 0.00 54 1008.1
20260506073035 18 192 6.4 16.1 0.00 0.00 0.00 54 1008.0
20260506072517 18 187 4.8 14.5 0.00 0.00 0.00 54 1008.2
20260506072015 18 155 1.6 22.5 0.00 0.00 0.00 54 1008.1
20260506071534 18 204 3.2 22.5 0.00 0.00 0.00 53 1008.1
20260506071017 18 198 1.6 14.5 0.00 0.00 0.00 53 1008.0
20260506070516 18 205 4.8 16.1 0.00 0.00 0.00 53 1008.1
20260506062015 18 202 3.2 14.5 0.00 0.00 0.00 53 1008.7
20260506061531 18 161 4.8 12.9 0.00 0.00 0.00 53 1008.8
20260506061016 18 213 3.2 9.7 0.00 0.00 0.00 53 1008.8
20260506060517 18 202 3.2 16.1 0.00 0.00 0.00 53 1008.9
20260506051016 19 235 4.8 12.9 0.00 0.00 0.00 49 1008.9
20260506050514 19 186 4.8 19.3 0.00 0.00 0.00 49 1009.0
20260506045014 19 278 3.2 12.9 0.00 0.00 0.00 48 1009.1
20260506044535 19 129 1.6 12.9 0.00 0.00 0.00 48 1009.1
20260506044013 19 150 3.2 12.9 0.00 0.00 0.00 47 1009.1
20260506043518 19 235 3.2 14.5 0.00 0.00 0.00 47 1009.2
20260506043034 19 257 3.2 14.5 0.00 0.00 0.00 47 1009.1
20260506042518 19 0 0.0 14.5 0.00 0.00 0.00 47 1009.1
20260506042015 19 0 1.6 14.5 0.00 0.00 0.00 48 1009.1
20260506041532 19 215 4.8 14.5 0.00 0.00 0.00 47 1009.1
20260506041015 19 202 1.6 8.0 0.00 0.00 0.00 47 1009.2
20260506040516 19 11 0.0 12.9 0.00 0.00 0.00 48 1009.2
20260506040045 20 0 1.6 12.9 0.00 0.00 0.00 47 1009.2
20260506035516 20 195 4.8 14.5 0.00 0.00 0.00 47 1009.3
20260506035016 20 0 0.0 14.5 0.00 0.00 0.00 47 1009.2
20260506034533 20 330 3.2 17.7 0.00 0.00 0.00 47 1009.2
20260506034014 20 0 0.0 17.7 0.00 0.00 0.00 47 1009.2
20260506033514 20 203 0.0 14.5 0.00 0.00 0.00 46 1009.2
20260506033032 20 225 4.8 14.5 0.00 0.00 0.00 46 1009.2
20260506032514 20 194 1.6 11.3 0.00 0.00 0.00 46 1009.1
20260506032017 20 324 3.2 11.3 0.00 0.00 0.00 46 1009.0
20260506031533 20 214 3.2 16.1 0.00 0.00 0.00 46 1009.1
20260506031017 20 183 1.6 16.1 0.00 0.00 0.00 45 1009.1
20260506030515 20 5 4.8 12.9 0.00 0.00 0.00 45 1009.2
20260506030031 20 207 3.2 14.5 0.00 0.00 0.00 45 1009.1
20260506025515 20 207 0.0 14.5 0.00 0.00 0.00 45 1009.2
20260506025016 20 196 6.4 14.5 0.00 0.00 0.00 45 1009.2
20260506024541 20 0 4.8 17.7 0.00 0.00 0.00 45 1009.2
20260506024017 20 271 4.8 17.7 0.00 0.00 0.00 45 1009.2
20260506023529 21 227 3.2 12.9 0.00 0.00 0.00 45 1009.3
20260506023032 21 238 3.2 12.9 0.00 0.00 0.00 44 1009.3
20260506022515 21 227 1.6 11.3 0.00 0.00 0.00 44 1009.3
20260506022015 21 250 4.8 11.3 0.00 0.00 0.00 43 1009.3
20260506021546 21 213 1.6 22.5 0.00 0.00 0.00 44 1009.3
20260506021016 21 136 6.4 22.5 0.00 0.00 0.00 44 1009.3
20260506020521 21 202 6.4 19.3 0.00 0.00 0.00 43 1009.4
20260506020030 21 0 0.0 8.0 0.00 0.00 0.00 43 1009.3
20260506015517 21 0 1.6 16.1 0.00 0.00 0.00 43 1009.3
20260506015017 21 185 3.2 16.1 0.00 0.00 0.00 42 1009.2
20260506014530 21 0 3.2 16.1 0.00 0.00 0.00 42 1009.2
20260506014014 21 249 4.8 20.9 0.00 0.00 0.00 41 1009.1
20260506013516 21 0 4.8 20.9 0.00 0.00 0.00 41 1009.0
20260506013032 21 330 0.0 11.3 0.00 0.00 0.00 42 1009.0
20260506012516 22 175 3.2 17.7 0.00 0.00 0.00 41 1008.9
20260506012017 22 0 1.6 17.7 0.00 0.00 0.00 42 1008.9
20260506011540 22 167 3.2 14.5 0.00 0.00 0.00 41 1008.8
20260506011015 22 352 1.6 17.7 0.00 0.00 0.00 42 1008.7
20260506010518 22 307 1.6 17.7 0.00 0.00 0.00 41 1008.7
20260506010045 22 317 0.0 11.3 0.00 0.00 0.00 41 1008.5
20260506005516 22 228 3.2 16.1 0.00 0.00 0.00 41 1008.5
20260506005017 22 176 4.8 22.5 0.00 0.00 0.00 41 1008.4
20260506004532 22 219 1.6 22.5 0.00 0.00 0.00 41 1008.5
20260506004014 22 188 3.2 14.5 0.00 0.00 0.00 41 1008.5
20260506003515 22 209 3.2 14.5 0.00 0.00 0.00 40 1008.4
20260506003033 22 0 4.8 14.5 0.00 0.00 0.00 40 1008.3
20260506002517 22 0 1.6 17.7 0.00 0.00 0.00 41 1008.3
20260506002016 22 248 6.4 19.3 0.00 0.00 0.00 41 1008.2
20260506001530 22 223 8.0 19.3 0.00 0.00 0.00 41 1008.1
20260506001015 22 215 3.2 14.5 0.00 0.00 0.00 40 1008.1
20260506000517 22 0 3.2 14.5 0.00 0.00 0.00 40 1008.2
20260506000034 22 194 4.8 14.5 0.00 0.00 0.00 40 1008.1
20260505235516 22 0 1.6 11.3 0.00 0.00 0.00 40 1008.1
20260505235016 22 196 4.8 11.3 0.00 0.00 0.00 40 1008.0
20260505234552 22 227 1.6 9.7 0.00 0.00 0.00 39 1008.0
20260505234016 22 186 1.6 16.1 0.00 0.00 0.00 39 1008.0
20260505233519 23 207 4.8 17.7 0.00 0.00 0.00 39 1008.0
20260505233034 23 260 4.8 17.7 0.00 0.00 0.00 38 1008.0
20260505232514 23 0 0.0 9.7 0.00 0.00 0.00 39 1007.9
20260505232016 23 211 3.2 16.1 0.00 0.00 0.00 38 1007.9
20260505231533 23 258 3.2 16.1 0.00 0.00 0.00 38 1007.9
20260505231016 23 255 4.8 16.1 0.00 0.00 0.00 38 1007.9
20260505230516 23 241 3.2 12.9 0.00 0.00 0.00 38 1007.8
20260505230030 23 276 1.6 11.3 0.00 0.00 0.00 37 1007.8
20260505225516 23 38 3.2 12.9 0.00 0.00 0.00 36 1007.7
20260505225014 23 0 1.6 12.9 0.00 0.00 0.00 36 1007.6
20260505224533 23 257 3.2 12.9 0.00 0.00 0.00 36 1007.6
20260505224021 23 98 1.6 9.7 0.00 0.00 0.00 36 1007.4
20260505223516 23 339 1.6 14.5 0.00 0.00 0.00 36 1007.6
20260505223029 23 212 3.2 25.7 0.00 0.00 0.00 36 1007.6
20260505222516 23 88 6.4 25.7 0.00 0.00 0.00 36 1007.5
20260505222015 23 319 11.3 25.7 0.00 0.00 0.00 36 1007.5
20260505221530 23 242 6.4 30.6 0.00 0.00 0.00 36 1007.6
20260505221016 22 277 9.7 30.6 0.00 0.00 0.00 38 1007.6
20260505220514 22 281 8.0 20.9 0.00 0.00 0.00 42 1007.6
20260505220031 21 170 8.0 19.3 0.00 0.00 0.00 44 1007.4
20260505215514 21 326 4.8 16.1 0.00 0.00 0.00 46 1007.4
20260505215014 21 184 1.6 8.0 0.00 0.00 0.00 52 1007.4
20260505214542 21 266 0.0 4.8 0.00 0.00 0.00 52 1007.4
20260505214015 21 0 0.0 6.4 0.00 0.00 0.00 54 1007.4
20260505213515 21 0 1.6 17.7 0.00 0.00 0.00 54 1007.3
20260505213030 21 298 4.8 30.6 0.00 0.00 0.00 47 1007.5
20260505212518 22 337 11.3 30.6 0.00 0.00 0.00 42 1007.6
20260505212015 23 327 12.9 30.6 0.00 0.00 0.00 37 1008.1
20260505211540 24 339 11.3 30.6 0.00 0.00 0.00 33 1007.7
20260505211014 24 323 3.2 22.5 0.00 0.00 0.00 33 1007.3
20260505210516 24 318 8.0 22.5 0.00 0.00 0.00 33 1007.1
20260505210031 24 56 4.8 20.9 0.00 0.00 0.00 32 1006.9
20260505205517 24 340 4.8 25.7 0.00 0.00 0.00 33 1007.1
20260505205017 24 315 6.4 25.7 0.00 0.00 0.00 33 1006.9
20260505204533 25 297 8.0 25.7 0.00 0.00 0.00 32 1007.0
20260505204016 25 207 6.4 32.2 0.00 0.00 0.00 32 1006.9
20260505203516 25 265 9.7 38.6 0.00 0.00 0.00 32 1006.9
20260505203046 25 207 9.7 38.6 0.00 0.00 0.00 32 1006.9
20260505202514 26 277 14.5 32.2 0.00 0.00 0.00 31 1006.7
20260505202014 26 296 9.7 32.2 0.00 0.00 0.00 30 1006.7
20260505201531 26 277 12.9 38.6 0.00 0.00 0.00 30 1006.7
20260505201018 26 267 14.5 38.6 0.00 0.00 0.00 30 1006.6
20260505200515 26 298 8.0 38.6 0.00 0.00 0.00 31 1006.7
20260505200031 25 214 19.3 38.6 0.00 0.00 0.00 31 1006.8
20260505195515 26 333 14.5 38.6 0.00 0.00 0.00 30 1006.8
20260505195015 26 165 17.7 38.6 0.00 0.00 0.00 30 1006.7
20260505194529 26 300 4.8 40.2 0.00 0.00 0.00 31 1006.7
20260505194016 25 167 12.9 40.2 0.00 0.00 0.00 30 1006.9
20260505193515 25 334 8.0 32.2 0.00 0.00 0.00 31 1007.2
20260505193030 25 317 12.9 32.2 0.00 0.00 0.00 31 1007.1
20260505192516 25 309 12.9 32.2 0.00 0.00 0.00 31 1007.3
20260505192015 26 315 16.1 32.2 0.00 0.00 0.00 30 1007.3
20260505191530 25 242 6.4 32.2 0.00 0.00 0.00 31 1007.3
20260505191017 25 242 11.3 30.6 0.00 0.00 0.00 31 1007.4
20260505190515 25 241 8.0 37.0 0.00 0.00 0.00 31 1007.5
20260505190034 25 321 16.1 41.8 0.00 0.00 0.00 32 1007.7
20260505185515 25 276 11.3 41.8 0.00 0.00 0.00 31 1007.6
20260505185014 25 325 12.9 30.6 0.00 0.00 0.00 31 1007.7
20260505184543 25 318 14.5 29.0 0.00 0.00 0.00 31 1007.9
20260505184016 25 316 8.0 32.2 0.00 0.00 0.00 31 1007.6
20260505183513 25 304 16.1 40.2 0.00 0.00 0.00 31 1008.2
20260505183039 25 327 8.0 40.2 0.00 0.00 0.00 32 1008.0
20260505182516 25 179 17.7 40.2 0.00 0.00 0.00 31 1008.1
20260505182014 25 294 11.3 40.2 0.00 0.00 0.00 31 1008.0
20260505181531 25 285 11.3 40.2 0.00 0.00 0.00 32 1008.0
20260505181014 25 317 16.1 33.8 0.00 0.00 0.00 31 1008.3
20260505180518 25 285 11.3 40.2 0.00 0.00 0.00 32 1008.0
20260505180032 25 306 14.5 40.2 0.00 0.00 0.00 31 1008.3
20260505175514 25 325 9.7 32.2 0.00 0.00 0.00 30 1008.1
20260505175014 25 342 12.9 32.2 0.00 0.00 0.00 31 1008.1
20260505174530 25 298 12.9 38.6 0.00 0.00 0.00 33 1008.2
20260505174015 25 267 14.5 38.6 0.00 0.00 0.00 33 1008.1
20260505173514 25 340 12.9 35.4 0.00 0.00 0.00 34 1008.2
20260505173031 24 319 12.9 27.4 0.00 0.00 0.00 34 1008.2
20260505172514 24 348 9.7 33.8 0.00 0.00 0.00 35 1008.3
20260505172014 24 323 17.7 33.8 0.00 0.00 0.00 35 1008.1
20260505171530 24 13 11.3 25.7 0.00 0.00 0.00 35 1008.1
20260505171015 23 346 11.3 24.1 0.00 0.00 0.00 36 1008.1
20260505170515 24 101 11.3 30.6 0.00 0.00 0.00 37 1008.2
20260505170036 23 318 9.7 37.0 0.00 0.00 0.00 36 1008.4
20260505165515 24 63 14.5 38.6 0.00 0.00 0.00 36 1008.6
20260505165015 25 304 11.3 38.6 0.00 0.00 0.00 35 1008.5
20260505164536 25 100 6.4 22.5 0.00 0.00 0.00 35 1008.3
20260505164016 24 211 8.0 27.4 0.00 0.00 0.00 38 1008.4
20260505163518 23 270 12.9 32.2 0.00 0.00 0.00 39 1008.4
20260505163033 23 15 14.5 32.2 0.00 0.00 0.00 39 1008.7
20260505162520 23 31 14.5 32.2 0.00 0.00 0.00 40 1008.8
20260505162019 23 294 17.7 32.2 0.00 0.00 0.00 40 1008.7
20260505161539 23 237 9.7 25.7 0.00 0.00 0.00 41 1008.9